STARLINK-1834 (46781 NORAD) Tracking and Keplerian Element Data

This shows tracking and keplerian element data for the satellite.

Feedback or suggestion? Click here.




ElementValue
Catalog46781
NameSTARLINK-1834
Epoch Orbit487
Epoch Day328.16667824
Epoch Year2020
RAAN15.4564
Inclination53.0554
Eccentricity0.0001256
Argument of Perigee72.6867
Mean Anonmoly168.5004
Mean Motion15.62819886
Decay Rate0.00018192
L11 46781U 20074AU 20328.16667824 .00018192 00000-0 20354-3 0 9992
L22 46781 53.0554 15.4564 0001256 72.6867 168.5004 15.62819886 4872

Live tracking and technical data element details for STARLINK-1834 (NORAD 46781). STARLINK-1834 can be tracked NOW for your location showing map with azimuth and elevation plus other details from your city location.

Track the satellite on the map from your city or location and see movement details for azimuth, elevation, latitude, longitude, range, height, and movement on the map or in text.







IsCatalogInMostPopularTable: catalog: 46781, numindb: 8
Update: records affected: 1



GetName: 46781 STARLINK-1834

Hit Count: updated at: Tue, 24 Nov 2020 12:19:00 GMT